Location: Bruderhein
(53.8035°N, 112.9265°W)
Time: 08:18:52
(UTC+00:00)

TIGRISAT - Pass Details

Date: 06 April 2023
Orbit: 599 x 682 km, 97.7° (Epoch: 03 June)

Event Time Altitude Azimuth Distance (km) Brightness Sun altitude
Rises 11:37:32 0° 149° (SSE) 2,965 ? -11.3°
Reaches altitude 10° 11:39:45 10° 145° (SE) 2,071 ? -11.0°
Maximum altitude 11:44:09 53° 69° (ENE) 823 ? -10.4°
Drops below altitude 10° 11:48:41 10° 353° (N) 2,127 ? -9.8°
Sets 11:50:59 0° 349° (N) 3,054 ? -9.5°
